"Pseudo-MPEC" for HirGLE1

Created 2024 May 1 12:22:08 UT using Find_Orb

Click here for an explanation of pseudo-MPECs

 
 Astrometry: 
     HirGLE1*0B2024 04 10lCu$h4KuRD@=Astrometry@s'rW2FISn%LRci!kPMh+W:V,lTLcNM49
     HirGLE1 0B2024 04 10EDFWVF/o_6GY\%-/m3n$'$redacted;0sX\6-\Z-m6.sy#25$4I'M49
     HirGLE1 0B2024 04 10pN4ZA!(F(-click0U?mherekLfor)explanationK4v;BI:y[*#IM49

Station data:
(M49) IAS Remote Observatory, Hakos  (S23.236549 E16.361720)  Namibia.
   Observers D. Husar, M. Junius. Measurer D. Husar. 0.25-m f/4.6 reflector +
   CCD.

Orbital elements:  HirGLE1
   Perihelion 2024 Feb 20.80307 +/- 41.4 TT = 19:16:25 (JD 2460361.30307)
Epoch 2024 Apr 11.0 TT = JDT 2460411.5   Earth MOID: 0.0006   Ju: 0.0074
M   3.78436370 +/- 18               Ve: 0.0885   Ma: 0.0020   Sa: 0.0969
n   0.07539034 +/- 0.167            Peri.  314.92321 +/- 100     AutoNEOCP
a   5.54956449 +/- 8.18             Node   174.25620 +/- 60
e   0.8560409 +/- 0.249             Incl.    0.18834 +/- 0.23
P  13.07                   H 22.60  G  0.15   U 11.5  SR
q 0.79891009 +/- 0.244    Q 10.3002188 +/- 63.4           (J2000 ecliptic)
From 3 observations 2024 Apr. 10 (4.6 min); mean residual 0".09
Residuals in arcseconds: 
240410 M49  .03-  .08-    240410 M49  .07+  .16+    240410 M49  .04-  .08-    

Ephemerides (geocentric):
Date (UTC) HH   RA             Dec           delta  r     elong  mag " sig PA
---- --------  ------------   ------------  ------ ------ -----  --- --------
2024 05 01 12  13 24 22.947   -08 25 23.76  .41984 1.4119 161.4 22.2  64d  92
2024 05 01 13  13 24 24.130   -08 25 31.56  .42041 1.4124 161.3 22.2  64d  92
2024 05 01 14  13 24 25.313   -08 25 39.36  .42098 1.4129 161.3 22.2  64d  92
2024 05 01 15  13 24 26.496   -08 25 47.16  .42154 1.4134 161.3 22.2  64d  92
2024 05 01 16  13 24 27.678   -08 25 54.95  .42211 1.4139 161.2 22.3  64d  92
2024 05 01 17  13 24 28.861   -08 26 02.75  .42268 1.4144 161.2 22.3  65d  92
2024 05 01 18  13 24 30.044   -08 26 10.54  .42324 1.4149 161.2 22.3  65d  92
2024 05 01 19  13 24 31.226   -08 26 18.33  .42381 1.4154 161.1 22.3  65d  92
2024 05 01 20  13 24 32.408   -08 26 26.11  .42438 1.4159 161.1 22.3  65d  92
2024 05 01 21  13 24 33.591   -08 26 33.90  .42495 1.4164 161.1 22.3  65d  92
2024 05 01 22  13 24 34.773   -08 26 41.69  .42551 1.4169 161.0 22.3  65d  92
2024 05 01 23  13 24 35.955   -08 26 49.47  .42608 1.4174 161.0 22.3  65d  92
2024 05 02 00  13 24 37.137   -08 26 57.25  .42665 1.4179 160.9 22.3  65d  92
2024 05 02 01  13 24 38.319   -08 27 05.03  .42722 1.4184 160.9 22.3  65d  92
2024 05 02 02  13 24 39.501   -08 27 12.81  .42779 1.4189 160.9 22.3  65d  92
2024 05 02 03  13 24 40.683   -08 27 20.58  .42836 1.4195 160.8 22.3  65d  92
2024 05 02 04  13 24 41.865   -08 27 28.36  .42893 1.4200 160.8 22.3  65d  92
2024 05 02 05  13 24 43.047   -08 27 36.13  .42950 1.4205 160.8 22.3  65d  92
2024 05 02 06  13 24 44.229   -08 27 43.90  .43007 1.4210 160.7 22.3  65d  92
2024 05 02 07  13 24 45.411   -08 27 51.68  .43064 1.4215 160.7 22.3  65d  92
2024 05 02 08  13 24 46.593   -08 27 59.45  .43121 1.4220 160.7 22.3  65d  92
2024 05 02 09  13 24 47.775   -08 28 07.21  .43178 1.4225 160.6 22.3  65d  92
2024 05 02 10  13 24 48.957   -08 28 14.98  .43235 1.4230 160.6 22.3  65d  92
2024 05 02 11  13 24 50.139   -08 28 22.75  .43292 1.4235 160.6 22.3  65d  92
2024 05 02 12  13 24 51.321   -08 28 30.51  .43349 1.4240 160.5 22.3  65d  92
2024 05 02 13  13 24 52.503   -08 28 38.28  .43406 1.4245 160.5 22.3  65d  92
2024 05 02 14  13 24 53.685   -08 28 46.04  .43463 1.4250 160.5 22.3  65d  92
2024 05 02 15  13 24 54.867   -08 28 53.80  .43520 1.4255 160.4 22.4  65d  92
2024 05 02 16  13 24 56.050   -08 29 01.56  .43578 1.4260 160.4 22.4  65d  92
2024 05 02 17  13 24 57.232   -08 29 09.32  .43635 1.4265 160.4 22.4  65d  92
2024 05 02 18  13 24 58.414   -08 29 17.08  .43692 1.4270 160.3 22.4  65d  92
2024 05 02 19  13 24 59.597   -08 29 24.84  .43749 1.4275 160.3 22.4  65d  92
2024 05 02 20  13 25 00.779   -08 29 32.59  .43807 1.4280 160.2 22.4  65d  92
2024 05 02 21  13 25 01.962   -08 29 40.35  .43864 1.4285 160.2 22.4  65d  92
2024 05 02 22  13 25 03.144   -08 29 48.11  .43921 1.4290 160.2 22.4  65d  92
2024 05 02 23  13 25 04.327   -08 29 55.86  .43979 1.4295 160.1 22.4  65d  92
2024 05 03 00  13 25 05.510   -08 30 03.62  .44036 1.4300 160.1 22.4  65d  92
2024 05 03 01  13 25 06.693   -08 30 11.37  .44094 1.4305 160.1 22.4  65d  92
2024 05 03 02  13 25 07.876   -08 30 19.12  .44151 1.4310 160.0 22.4  66d  93
2024 05 03 03  13 25 09.059   -08 30 26.88  .44209 1.4315 160.0 22.4  66d  93
2024 05 03 04  13 25 10.243   -08 30 34.63  .44266 1.4320 160.0 22.4  66d  93
2024 05 03 05  13 25 11.426   -08 30 42.38  .44324 1.4325 159.9 22.4  66d  93
2024 05 03 06  13 25 12.610   -08 30 50.13  .44381 1.4330 159.9 22.4  66d  93
2024 05 03 07  13 25 13.794   -08 30 57.88  .44439 1.4335 159.9 22.4  66d  93
2024 05 03 08  13 25 14.978   -08 31 05.64  .44496 1.4340 159.8 22.4  66d  93
2024 05 03 09  13 25 16.162   -08 31 13.39  .44554 1.4345 159.8 22.4  66d  93
2024 05 03 10  13 25 17.346   -08 31 21.14  .44612 1.4351 159.8 22.4  66d  93
2024 05 03 11  13 25 18.530   -08 31 28.89  .44669 1.4356 159.7 22.4  66d  93